N8HON Weather Reports


Display with metric or nautical units.
time (UTC)temp
F
wind
direction
speed
MPH
gust
MPH
rain 1hr
in
rain 24hr
in
rain mn
in
humidity
%
barometer
mb
20260510015605 57 231 1.0 2.0 0.00 0.00 0.00 66 1010.2
20260510015102 57 193 0.0 2.0 0.00 0.00 0.00 64 1009.9
20260510014558 57 186 1.0 2.0 0.00 0.00 0.00 64 1010.2
20260510014056 58 217 0.0 1.0 0.00 0.00 0.00 64 1009.9
20260510013555 58 232 1.0 2.0 0.00 0.00 0.00 64 1009.9
20260510013052 59 253 1.0 2.0 0.00 0.00 0.00 62 1009.5
20260510012551 59 333 1.0 2.0 0.00 0.00 0.00 62 1009.7
20260510012048 59 252 1.0 2.0 0.00 0.00 0.00 61 1009.6
20260510011547 59 256 2.0 2.0 0.00 0.00 0.00 59 1009.6
20260510011043 59 269 1.0 3.0 0.00 0.00 0.00 60 1009.5
20260510010540 60 275 2.0 2.0 0.00 0.00 0.00 60 1009.5
20260510010037 59 237 1.0 2.0 0.00 0.00 0.00 59 1009.5
20260510005533 60 224 0.0 1.0 0.00 0.00 0.00 60 1009.4
20260510005031 59 235 0.0 1.0 0.00 0.00 0.00 59 1009.3
20260510004528 60 309 2.0 2.0 0.00 0.00 0.00 59 1009.3
20260510004026 59 257 0.0 0.0 0.00 0.00 0.00 60 1009.0
20260510003523 59 210 0.0 0.0 0.00 0.00 0.00 60 1009.1
20260510003018 60 210 0.0 0.0 0.00 0.00 0.00 60 1009.0
20260510002514 60 254 1.0 1.0 0.00 0.00 0.00 59 1008.9
20260510002011 60 199 0.0 0.0 0.00 0.00 0.00 58 1008.8
20260510001508 60 193 0.0 0.0 0.00 0.00 0.00 57 1008.5
20260510001006 60 122 0.0 0.0 0.00 0.00 0.00 58 1008.5
20260510000501 61 125 0.0 0.0 0.00 0.00 0.00 57 1008.4
20260509235958 61 206 0.0 0.0 0.00 0.00 0.00 58 1008.3
20260509235455 62 195 0.0 2.0 0.00 0.00 0.00 56 1008.3
20260509234951 62 177 0.0 2.0 0.00 0.00 0.00 55 1008.4
20260509234448 62 225 0.0 1.0 0.00 0.00 0.00 56 1008.2
20260509233946 63 165 0.0 3.0 0.00 0.00 0.00 54 1008.0
20260509233443 63 155 0.0 0.0 0.00 0.00 0.00 54 1008.2
20260509232939 64 169 0.0 1.0 0.00 0.00 0.00 52 1008.6
20260509232437 64 262 2.0 3.0 0.00 0.00 0.00 52 1008.5
20260509231932 64 275 2.0 2.0 0.00 0.00 0.00 54 1008.4
20260509231430 64 193 1.0 3.0 0.00 0.00 0.00 52 1008.4
20260509230928 65 173 0.0 1.0 0.00 0.00 0.00 51 1008.2
20260509230424 65 148 0.0 6.0 0.00 0.00 0.00 52 1008.6
20260509225920 66 135 1.0 1.0 0.00 0.00 0.00 50 1008.3
20260509225417 66 110 1.0 3.0 0.00 0.00 0.00 51 1008.6
20260509224913 66 118 3.0 3.0 0.00 0.00 0.00 50 1008.3
20260509224414 66 158 1.0 3.0 0.00 0.00 0.00 48 1008.4
20260509223911 67 97 2.0 2.0 0.00 0.00 0.00 48 1008.4
20260509223408 67 133 2.0 3.0 0.00 0.00 0.00 47 1008.2
20260509222905 68 109 2.0 6.0 0.00 0.00 0.00 47 1008.2
20260509222400 68 181 0.0 2.0 0.00 0.00 0.00 46 1008.2
20260509221855 68 124 1.0 2.0 0.00 0.00 0.00 47 1008.5
20260509221353 69 123 1.0 2.0 0.00 0.00 0.00 45 1008.5
20260509220849 69 338 2.0 3.0 0.00 0.00 0.00 47 1008.5
20260509220345 69 334 6.0 7.0 0.00 0.00 0.00 43 1008.2
20260509215840 69 291 3.0 5.0 0.00 0.00 0.00 45 1008.3
20260509215337 69 198 0.0 3.0 0.00 0.00 0.00 45 1008.2
20260509214834 69 124 1.0 5.0 0.00 0.00 0.00 47 1008.0
20260509214332 69 143 2.0 2.0 0.00 0.00 0.00 43 1008.0
20260509213829 69 59 2.0 3.0 0.00 0.00 0.00 45 1008.2
20260509213324 69 196 1.0 5.0 0.00 0.00 0.00 44 1008.0
20260509212822 70 155 0.0 1.0 0.00 0.00 0.00 43 1007.8
20260509212320 71 12 1.0 5.0 0.00 0.00 0.00 42 1007.7
20260509211815 70 104 1.0 2.0 0.00 0.00 0.00 42 1007.5
20260509211311 69 258 1.0 2.0 0.00 0.00 0.00 41 1007.9
20260509210808 69 91 1.0 1.0 0.00 0.00 0.00 43 1007.8
20260509210305 68 328 3.0 5.0 0.00 0.00 0.00 43 1007.5
20260509205804 69 124 0.0 3.0 0.00 0.00 0.00 44 1007.6
20260509205300 69 102 0.0 2.0 0.00 0.00 0.00 43 1007.6
20260509204756 69 162 0.0 2.0 0.00 0.00 0.00 43 1007.5
20260509204252 69 252 3.0 9.0 0.00 0.00 0.00 42 1007.5
20260509203748 69 178 0.0 5.0 0.00 0.00 0.00 41 1007.5
20260509203246 69 133 0.0 3.0 0.00 0.00 0.00 41 1007.3
20260509202742 70 139 0.0 3.0 0.00 0.00 0.00 40 1007.3
20260509202238 70 121 3.0 7.0 0.00 0.00 0.00 43 1007.2
20260509201733 71 13 3.0 5.0 0.00 0.00 0.00 40 1007.4
20260509201230 70 102 1.0 2.0 0.00 0.00 0.00 41 1007.4
20260509200726 70 323 3.0 3.0 0.00 0.00 0.00 44 1007.4
20260509200221 69 322 1.0 3.0 0.00 0.00 0.00 40 1007.2
20260509195717 70 43 2.0 11.0 0.00 0.00 0.00 40 1007.2
20260509195213 71 200 4.0 7.0 0.00 0.00 0.00 38 1007.3
20260509194712 73 130 4.0 8.0 0.00 0.00 0.00 38 1007.2
20260509194209 71 75 3.0 6.0 0.00 0.00 0.00 38 1007.3
20260509193706 68 155 5.0 6.0 0.00 0.00 0.00 45 1006.9
20260509193206 68 49 4.0 5.0 0.00 0.00 0.00 44 1007.3
20260509192703 68 52 1.0 5.0 0.00 0.00 0.00 44 1007.2
20260509192158 69 300 5.0 10.0 0.00 0.00 0.00 43 1007.3
20260509191653 69 300 3.0 3.0 0.00 0.00 0.00 45 1007.2
20260509191150 69 140 3.0 5.0 0.00 0.00 0.00 48 1007.5
20260509190646 68 116 1.0 3.0 0.00 0.00 0.00 46 1007.4
20260509190143 68 338 1.0 3.0 0.00 0.00 0.00 44 1007.5
20260509185641 69 143 1.0 7.0 0.00 0.00 0.00 47 1007.4
20260509185137 68 106 1.0 3.0 0.00 0.00 0.00 47 1007.6
20260509184635 68 138 2.0 9.0 0.00 0.00 0.00 46 1007.4
20260509184131 69 83 2.0 3.0 0.00 0.00 0.00 47 1007.8
20260509183628 68 165 0.0 9.0 0.00 0.00 0.00 50 1007.9
20260509183123 68 164 1.0 3.0 0.00 0.00 0.00 48 1007.8
20260509182619 71 134 5.0 8.0 0.00 0.00 0.00 46 1007.9
20260509182117 69 144 2.0 3.0 0.00 0.00 0.00 49 1008.0
20260509181615 69 100 1.0 2.0 0.00 0.00 0.00 48 1007.9
20260509181111 70 131 6.0 9.0 0.00 0.00 0.00 49 1007.8
20260509180608 67 82 3.0 5.0 0.00 0.00 0.00 54 1007.9
20260509180105 66 146 1.0 5.0 0.00 0.00 0.00 54 1008.2
20260509175600 66 119 4.0 5.0 0.00 0.00 0.00 53 1008.1
20260509175058 66 62 4.0 6.0 0.00 0.00 0.00 53 1008.5
20260509174554 66 71 2.0 6.0 0.00 0.00 0.00 56 1008.4
20260509174049 64 75 5.0 7.0 0.00 0.00 0.00 59 1008.5
20260509173544 64 63 4.0 7.0 0.00 0.00 0.00 56 1008.8
20260509173040 62 150 0.0 5.0 0.00 0.00 0.00 59 1008.9
20260509172538 61 74 4.0 7.0 0.00 0.00 0.00 63 1009.0
20260509172033 60 64 2.0 3.0 0.00 0.00 0.00 67 1009.3
20260509171529 60 89 4.0 5.0 0.00 0.00 0.00 66 1009.1
20260509171026 60 101 5.0 8.0 0.00 0.00 0.00 66 1009.0
20260509170521 61 38 4.0 5.0 0.00 0.00 0.00 64 1009.3
20260509170018 60 201 3.0 8.0 0.00 0.00 0.00 64 1009.2
20260509165517 60 8 4.0 6.0 0.00 0.00 0.00 64 1009.2
20260509165012 60 82 5.0 6.0 0.00 0.00 0.00 64 1009.1
20260509164508 60 57 4.0 9.0 0.00 0.00 0.00 66 1008.8
20260509164004 61 71 6.0 8.0 0.00 0.00 0.00 62 1009.0
20260509163502 63 68 4.0 8.0 0.00 0.00 0.00 61 1008.8
20260509163001 63 320 0.0 0.0 0.00 0.00 0.00 54 1008.9
20260509162500 64 185 0.0 0.0 0.00 0.00 0.00 52 1008.9
20260509161955 64 99 0.0 2.0 0.00 0.00 0.00 51 1008.9
20260509161452 64 9 0.0 2.0 0.00 0.00 0.00 51 1008.8
20260509160947 65 152 0.0 1.0 0.00 0.00 0.00 53 1008.6
20260509160443 65 111 0.0 1.0 0.00 0.00 0.00 52 1008.5
20260509155938 65 331 0.0 1.0 0.00 0.00 0.00 51 1008.4
20260509155435 65 154 1.0 3.0 0.00 0.00 0.00 51 1008.8
20260509154932 65 142 2.0 3.0 0.00 0.00 0.00 53 1008.4
20260509154428 65 149 1.0 3.0 0.00 0.00 0.00 53 1008.8
20260509153925 65 144 1.0 2.0 0.00 0.00 0.00 52 1008.5
20260509153422 65 139 2.0 3.0 0.00 0.00 0.00 52 1008.8
20260509152919 65 128 3.0 7.0 0.00 0.00 0.00 52 1008.8
20260509152415 65 186 1.0 3.0 0.00 0.00 0.00 52 1008.8
20260509151913 64 121 1.0 3.0 0.00 0.00 0.00 52 1008.4
20260509151408 64 124 2.0 2.0 0.00 0.00 0.00 56 1008.6
20260509150906 64 150 0.0 3.0 0.00 0.00 0.00 53 1008.5
20260509150404 63 140 0.0 3.0 0.00 0.00 0.00 54 1008.5
20260509145902 63 126 0.0 3.0 0.00 0.00 0.00 55 1008.8
20260509145401 64 117 0.0 5.0 0.00 0.00 0.00 54 1009.0
20260509144858 64 121 2.0 5.0 0.00 0.00 0.00 56 1009.0
20260509144354 64 155 3.0 6.0 0.00 0.00 0.00 56 1008.9
20260509143852 65 341 5.0 6.0 0.00 0.00 0.00 53 1008.8
20260509143350 64 119 3.0 5.0 0.00 0.00 0.00 56 1008.9
20260509142845 64 203 3.0 5.0 0.00 0.00 0.00 58 1008.8
20260509142342 65 153 3.0 7.0 0.00 0.00 0.00 56 1008.8
20260509141837 64 200 2.0 2.0 0.00 0.00 0.00 56 1008.8
20260509141334 65 127 2.0 8.0 0.00 0.00 0.00 55 1008.9
20260509140831 65 118 3.0 7.0 0.00 0.00 0.00 58 1009.0
20260509140328 64 168 2.0 5.0 0.00 0.00 0.00 56 1009.0
20260509135826 63 153 1.0 5.0 0.00 0.00 0.00 57 1009.3
20260509135323 62 133 1.0 6.0 0.00 0.00 0.00 59 1009.4
20260509134820 61 132 1.0 3.0 0.00 0.00 0.00 61 1009.5
20260509134318 61 231 2.0 5.0 0.00 0.00 0.00 59 1009.6
20260509133815 60 146 2.0 3.0 0.00 0.00 0.00 61 1009.5
20260509133311 59 152 1.0 7.0 0.00 0.00 0.00 64 1009.7
20260509132810 58 238 2.0 6.0 0.00 0.00 0.00 64 1009.8
20260509132308 58 144 2.0 5.0 0.00 0.00 0.00 65 1009.9
20260509131804 57 270 2.0 3.0 0.00 0.00 0.00 64 1009.9
20260509131302 57 135 2.0 3.0 0.00 0.00 0.00 65 1009.8
20260509130757 57 107 2.0 5.0 0.00 0.00 0.00 67 1010.1
20260509130253 56 133 0.0 2.0 0.00 0.00 0.00 69 1009.9
20260509125750 55 123 1.0 2.0 0.00 0.00 0.00 72 1010.0
20260509125247 55 119 1.0 3.0 0.00 0.00 0.00 69 1009.9
20260509124743 54 153 2.0 3.0 0.00 0.00 0.00 70 1010.0
20260509124240 54 174 0.0 2.0 0.00 0.00 0.00 70 1009.7
20260509123739 53 162 1.0 1.0 0.00 0.00 0.00 71 1009.7
20260509123236 53 125 0.0 2.0 0.00 0.00 0.00 71 1009.4
20260509122731 53 348 0.0 2.0 0.00 0.00 0.00 69 1009.6
20260509122228 52 267 2.0 3.0 0.00 0.00 0.00 69 1009.6
20260509121725 52 194 1.0 2.0 0.00 0.00 0.00 70 1009.7
20260509121222 52 222 1.0 3.0 0.00 0.00 0.00 70 1009.5
20260509120720 51 169 1.0 3.0 0.00 0.00 0.00 71 1009.7
20260509120218 51 174 0.0 1.0 0.00 0.00 0.00 71 1009.6
20260509115715 51 187 0.0 1.0 0.00 0.00 0.00 71 1009.6
20260509115212 51 182 1.0 1.0 0.00 0.00 0.00 71 1009.6
20260509114711 50 195 0.0 1.0 0.00 0.00 0.00 72 1009.8
20260509114209 50 302 2.0 3.0 0.00 0.00 0.00 71 1009.8
20260509113707 50 127 0.0 2.0 0.00 0.00 0.00 72 1009.8
20260509113204 50 186 0.0 2.0 0.00 0.00 0.00 73 1009.8
20260509112700 50 177 0.0 2.0 0.00 0.00 0.00 72 1009.6
20260509112158 50 341 2.0 2.0 0.00 0.00 0.00 71 1009.9
20260509111655 49 223 1.0 2.0 0.00 0.00 0.00 71 1009.8
20260509111151 49 210 1.0 2.0 0.00 0.00 0.00 74 1009.8
20260509110649 49 196 1.0 1.0 0.00 0.00 0.00 73 1009.8
20260509110145 49 184 0.0 0.0 0.00 0.00 0.00 74 1009.7
20260509105644 49 174 0.0 2.0 0.00 0.00 0.00 73 1009.9
20260509105141 49 348 0.0 2.0 0.00 0.00 0.00 73 1009.5
20260509104638 49 282 2.0 2.0 0.00 0.00 0.00 72 1009.6
20260509104134 49 276 4.0 5.0 0.00 0.00 0.00 72 1009.6
20260509103633 49 153 0.0 2.0 0.00 0.00 0.00 73 1009.7
20260509103131 49 190 1.0 3.0 0.00 0.00 0.00 72 1009.6
20260509102628 49 181 0.0 0.0 0.00 0.00 0.00 70 1009.5
20260509102125 50 186 0.0 2.0 0.00 0.00 0.00 70 1009.6
20260509101621 50 317 2.0 5.0 0.00 0.00 0.00 70 1009.7
20260509101118 49 208 0.0 1.0 0.00 0.00 0.00 70 1009.5
20260509100615 49 340 1.0 3.0 0.00 0.00 0.00 69 1009.5
20260509100112 50 343 3.0 3.0 0.00 0.00 0.00 68 1009.3
20260509095608 49 274 1.0 2.0 0.00 0.00 0.00 69 1009.7
20260509095106 50 222 3.0 3.0 0.00 0.00 0.00 69 1009.8
20260509094602 49 242 1.0 3.0 0.00 0.00 0.00 69 1009.8
20260509094059 49 114 0.0 1.0 0.00 0.00 0.00 70 1009.6
20260509093558 49 357 1.0 3.0 0.00 0.00 0.00 69 1009.5
20260509093055 49 189 0.0 0.0 0.00 0.00 0.00 70 1009.7
20260509092552 50 242 1.0 2.0 0.00 0.00 0.00 68 1009.6
20260509092051 50 192 0.0 2.0 0.00 0.00 0.00 68 1009.9
20260509091548 50 295 3.0 5.0 0.00 0.00 0.00 66 1010.0
20260509091044 50 338 2.0 3.0 0.00 0.00 0.00 68 1009.9
20260509090542 50 225 2.0 2.0 0.00 0.00 0.00 67 1009.9
20260509090040 50 274 3.0 5.0 0.00 0.00 0.00 67 1010.0
20260509085537 50 328 1.0 2.0 0.00 0.00 0.00 67 1009.8
20260509085032 50 184 0.0 2.0 0.00 0.00 0.00 67 1009.9
20260509084530 50 96 1.0 1.0 0.00 0.00 0.00 67 1009.9
20260509084027 50 222 0.0 0.0 0.00 0.00 0.00 66 1009.8
20260509083524 50 333 2.0 2.0 0.00 0.00 0.00 66 1010.0
20260509083020 50 202 0.0 1.0 0.00 0.00 0.00 67 1010.1
20260509082518 50 231 0.0 2.0 0.00 0.00 0.00 68 1010.2
20260509082015 51 190 0.0 2.0 0.00 0.00 0.00 66 1010.4
20260509081513 50 199 1.0 1.0 0.00 0.00 0.00 68 1010.0
20260509081009 51 223 2.0 3.0 0.00 0.00 0.00 66 1009.9
20260509080507 51 194 0.0 3.0 0.00 0.00 0.00 67 1010.2
20260509080005 51 333 3.0 3.0 0.00 0.00 0.00 67 1010.0
20260509075502 50 208 0.0 1.0 0.00 0.00 0.00 67 1009.9
20260509075000 51 144 0.0 2.0 0.00 0.00 0.00 65 1010.1
20260509074457 50 17 0.0 1.0 0.00 0.00 0.00 65 1010.1
20260509073953 50 327 0.0 2.0 0.00 0.00 0.00 66 1010.0
20260509073449 50 217 1.0 3.0 0.00 0.00 0.00 68 1010.1
20260509072946 50 138 0.0 0.0 0.00 0.00 0.00 66 1010.5
20260509072443 50 113 0.0 2.0 0.00 0.00 0.00 66 1010.1
20260509071940 50 178 0.0 2.0 0.00 0.00 0.00 66 1010.2
20260509071436 50 322 1.0 6.0 0.00 0.00 0.00 66 1010.5
20260509070934 50 168 0.0 3.0 0.00 0.00 0.00 67 1010.4
20260509070431 49 267 1.0 1.0 0.00 0.00 0.00 67 1010.5
20260509065926 50 306 1.0 2.0 0.00 0.00 0.00 68 1010.5
20260509065422 49 127 0.0 1.0 0.00 0.00 0.00 68 1010.5
20260509064919 49 236 0.0 1.0 0.00 0.00 0.00 68 1010.5
20260509064416 49 333 0.0 2.0 0.00 0.00 0.00 68 1010.6
20260509063914 49 150 0.0 0.0 0.00 0.00 0.00 69 1010.5
20260509063410 49 184 0.0 2.0 0.00 0.00 0.00 68 1010.6
20260509062907 49 54 0.0 3.0 0.00 0.00 0.00 68 1010.7
20260509062404 49 180 0.0 2.0 0.00 0.00 0.00 68 1010.6
20260509061901 49 136 0.0 0.0 0.00 0.00 0.00 67 1010.7
20260509061359 49 153 0.0 2.0 0.00 0.00 0.00 67 1010.8
20260509060856 49 339 2.0 2.0 0.00 0.00 0.00 67 1010.9
20260509060354 50 164 0.0 2.0 0.00 0.00 0.00 67 1010.7
20260509055854 50 287 2.0 2.0 0.00 0.00 0.00 67 1011.0
20260509055350 50 139 0.0 1.0 0.00 0.00 0.00 66 1010.8
20260509054847 50 175 1.0 3.0 0.00 0.00 0.00 65 1010.8
20260509054343 50 219 1.0 1.0 0.00 0.00 0.00 64 1010.7
20260509053842 50 105 1.0 1.0 0.00 0.00 0.00 64 1011.1
20260509053339 50 121 0.0 1.0 0.00 0.00 0.00 64 1011.1
20260509052837 51 74 1.0 2.0 0.00 0.00 0.00 64 1010.9
20260509052334 51 129 0.0 1.0 0.00 0.00 0.00 63 1010.8
20260509051832 51 259 3.0 5.0 0.00 0.00 0.00 63 1010.9
20260509051330 50 173 0.0 0.0 0.00 0.00 0.00 64 1011.0
20260509050826 50 171 0.0 0.0 0.00 0.00 0.00 65 1011.0
20260509050323 51 115 0.0 0.0 0.00 0.00 0.00 64 1011.1
20260509045820 51 37 1.0 2.0 0.00 0.00 0.00 63 1011.0
20260509045317 50 239 0.0 1.0 0.00 0.00 0.00 64 1011.1
20260509044814 50 341 1.0 2.0 0.00 0.00 0.00 64 1010.9
20260509044312 50 65 0.0 1.0 0.00 0.00 0.00 65 1011.0
20260509043808 50 117 0.0 0.0 0.00 0.00 0.00 65 1011.2
20260509043304 50 143 0.0 0.0 0.00 0.00 0.00 64 1011.1
20260509042800 51 103 0.0 2.0 0.00 0.00 0.00 63 1011.3
20260509042256 51 128 0.0 2.0 0.00 0.00 0.00 62 1011.1
20260509041753 52 135 0.0 0.0 0.00 0.00 0.00 61 1011.2
20260509041250 52 176 0.0 0.0 0.00 0.00 0.00 60 1011.2
20260509040749 53 133 0.0 0.0 0.00 0.00 0.00 60 1011.1
20260509040245 53 147 0.0 0.0 0.00 0.00 0.00 61 1011.1
20260509035742 53 136 0.0 0.0 0.00 0.00 0.00 60 1010.9
20260509035239 53 136 0.0 0.0 0.00 0.00 0.00 59 1011.2
20260509034736 53 117 0.0 0.0 0.00 0.00 0.00 58 1010.9
20260509034234 53 113 0.0 2.0 0.00 0.00 0.00 58 1010.9
20260509033730 53 126 0.0 0.0 0.00 0.00 0.00 59 1010.9
20260509033228 53 107 0.0 1.0 0.00 0.00 0.00 58 1010.9
20260509032725 53 343 0.0 2.0 0.00 0.00 0.00 58 1011.0
20260509032221 53 29 1.0 5.0 0.00 0.00 0.00 57 1011.1
20260509031719 53 135 0.0 2.0 0.00 0.00 0.00 58 1011.2
20260509031216 53 190 0.0 2.0 0.00 0.00 0.00 58 1010.9
20260509030714 52 103 0.0 1.0 0.00 0.00 0.00 58 1011.2
20260509030211 52 187 0.0 1.0 0.00 0.00 0.00 61 1011.0
20260509025708 51 148 0.0 1.0 0.00 0.00 0.00 63 1010.9
20260509025204 50 112 1.0 2.0 0.00 0.00 0.00 62 1011.1
20260509024659 51 111 0.0 1.0 0.00 0.00 0.00 62 1011.2
20260509024155 51 131 1.0 2.0 0.00 0.00 0.00 60 1011.1
20260509023653 52 177 0.0 2.0 0.00 0.00 0.00 60 1011.1
20260509023150 51 128 0.0 1.0 0.00 0.00 0.00 60 1011.1
20260509022646 52 42 1.0 2.0 0.00 0.00 0.00 58 1010.8
20260509022144 53 166 2.0 2.0 0.00 0.00 0.00 56 1010.9
20260509021640 53 125 0.0 0.0 0.00 0.00 0.00 56 1011.2
20260509021138 53 288 3.0 3.0 0.00 0.00 0.00 54 1010.9
20260509020636 54 206 0.0 1.0 0.00 0.00 0.00 53 1011.2
20260509020133 54 290 2.0 2.0 0.00 0.00 0.00 53 1011.0